Terminal Aerodrome Forecast
Issued by NWS Mt. Holly, NJ

Home | Current Version | Previous Version | Text Only | Print | Product List | Glossary On
Versions: 1 2 3 4 5 6 7 8 9 10 11 12 13 14 15 16 17 18 19 20 21 22 23 24 25 26 27 28 29 30 31 32 33 34 35 36 37 38 39 40 41 42 43 44 45 46 47 48 49 50
000
FTAK31 PANC 180529
TAFABE
TAF
PABE 180529Z 1806/1906 36010KT 6SM -RA BR BKN035 OVC050
      TEMPO 1806/1810 4SM -RA BR
     FM181500 31010KT P6SM VCFG FEW005 BKN020 OVC035
     FM182200 33010KT P6SM OVC035=

USA.gov is the U.S. government's official web portal to all federal, state and local government web resources and services.